Location: Alafon
(8.4500°N, 4.2333°E)
Time: 16:10:53
(UTC+00:00)

SR - Pass Details

Date: 09 August 2021
Orbit: 581 x 874 km, 66.7° (Epoch: 18 September)

Event Time Altitude Azimuth Distance (km) Brightness Sun altitude
Rises 03:44:42 0° 237° (WSW) 3,451 - -26.7°
Reaches altitude 10° 03:48:19 10° 259° (W) 2,517 - -25.9°
Maximum altitude 03:51:34 15° 293° (WNW) 2,160 - -25.2°
Exits shadow 03:54:17 11° 323° (NW) 2,394 ? -24.5°
Drops below altitude 10° 03:54:47 10° 327° (NNW) 2,485 ? -24.4°
Sets 03:58:21 0° 350° (N) 3,384 ? -23.6°
